Stations météo

réclame
Mon MeteoGroup
Fyvie castle, Grande-Bretagne (99010): Température de l'air & dewpoint: 11.10.2017 02:00:00 - 17.10.2017 02:00:00 (BST)Fyvie castle, Grande-Bretagne (99010): Quantités de précipitations: 11.10.2017 02:00:00 - 17.10.2017 02:00:00 (BST)
Date & Time tt [°C] td [°C] rr [mm]
17.10.2017 02:00:00 12,1 10,3 0,0
17.10.2017 01:00:00 12,4 9,9 0,0
17.10.2017 00:00:00 12,9 9,7 0,0
16.10.2017 23:00:00 13,0 9,6 0,0
16.10.2017 22:00:00 13,1 11,5 0,0
16.10.2017 21:00:00 13,1 12,8 0,0
16.10.2017 20:00:00 12,7 12,6 1,8
16.10.2017 19:00:00 12,3 12,0 0,8
16.10.2017 18:00:00 11,8 11,7 0,8
16.10.2017 17:00:00 11,2 11,1 0,0
16.10.2017 16:00:00 10,7 10,4 0,4
16.10.2017 15:00:00 10,4 10,1 0,8
16.10.2017 14:00:00 10,3 10,1 0,2
16.10.2017 13:00:00 9,8 9,6 1,2
16.10.2017 12:00:00 9,2 9,1 3,6
16.10.2017 11:00:00 8,5 8,3 1,8
16.10.2017 10:00:00 8,3 8,2 0,0
16.10.2017 09:00:00 8,1 8,0 0,0
16.10.2017 08:00:00 8,0 7,7 1,2
16.10.2017 07:00:00 8,0 7,7 1,2
16.10.2017 06:00:00 8,1 7,6 0,2
16.10.2017 05:00:00 8,1 7,6 0,2
16.10.2017 04:00:00 8,3 7,4 0,0
16.10.2017 03:00:00 8,4 7,2 0,0
16.10.2017 02:00:00 8,6 7,2 0,0
16.10.2017 01:00:00 9,3 7,1 0,0
16.10.2017 00:00:00 9,3 7,3 0,0
15.10.2017 23:00:00 10,1 6,9 0,0
15.10.2017 22:00:00 10,5 6,6 0,0
15.10.2017 21:00:00 10,8 6,8 0,0
15.10.2017 20:00:00 10,7 6,9 0,0
15.10.2017 19:00:00 11,5 6,7 0,0
15.10.2017 18:00:00 12,9 7,9 0,0
15.10.2017 17:00:00 18,2 9,3 0,0
15.10.2017 16:00:00 18,7 9,6 0,0
15.10.2017 15:00:00 18,7 11,0 0,0
15.10.2017 14:00:00 17,9 12,3 0,0
15.10.2017 13:00:00 16,5 12,0 0,0
15.10.2017 12:00:00 16,1 11,6 0,0
15.10.2017 11:00:00 15,9 11,4 0,0
15.10.2017 10:00:00 15,2 10,8 0,0
15.10.2017 09:00:00 15,0 10,4 0,0
15.10.2017 08:00:00 14,6 10,3 0,0
15.10.2017 07:00:00 15,1 10,1 0,0
15.10.2017 06:00:00 15,0 10,3 0,0
15.10.2017 05:00:00 15,2 10,7 0,0
15.10.2017 04:00:00 14,9 10,5 0,0
15.10.2017 03:00:00 14,3 10,6 0,0
15.10.2017 02:00:00 13,4 10,5 0,0
15.10.2017 01:00:00 12,0 9,9 0,0
15.10.2017 00:00:00 11,4 8,6 0,0
14.10.2017 23:00:00 11,3 8,1 0,0
14.10.2017 22:00:00 10,0 8,3 0,0
14.10.2017 21:00:00 9,7 8,5 0,0
14.10.2017 20:00:00 9,0 7,8 0,0
14.10.2017 19:00:00 9,7 7,7 0,0
14.10.2017 18:00:00 11,7 7,2 0,0
14.10.2017 17:00:00 12,2 7,2 0,0
14.10.2017 16:00:00 12,5 7,2 0,0
14.10.2017 15:00:00 13,1 7,7 0,0
14.10.2017 14:00:00 13,3 8,3 0,0
14.10.2017 13:00:00 13,1 7,6 0,0
14.10.2017 12:00:00 12,3 7,5 0,0
14.10.2017 11:00:00 12,6 7,7 0,0
14.10.2017 10:00:00 9,1 7,1 0,0
14.10.2017 09:00:00 7,1 6,8 0,0
14.10.2017 08:00:00 5,9 5,8 0,0
14.10.2017 07:00:00 5,1 4,9 0,0
14.10.2017 06:00:00 5,0 4,9 0,0
14.10.2017 05:00:00 4,8 4,5 0,0
14.10.2017 04:00:00 5,2 4,9 0,0
14.10.2017 03:00:00 5,6 4,9 0,0
14.10.2017 02:00:00 6,5 5,4 0,0
14.10.2017 01:00:00 8,4 5,7 0,0
14.10.2017 00:00:00 8,3 6,5 0,0
13.10.2017 23:00:00 11,4 7,9 0,0
13.10.2017 22:00:00 13,4 6,9 0,0
13.10.2017 21:00:00 13,1 8,0 0,0
13.10.2017 20:00:00 11,5 8,1 0,0
13.10.2017 19:00:00 11,8 8,2 0,0
13.10.2017 18:00:00 15,2 7,4 0,0
13.10.2017 17:00:00 16,4 6,7 0,0
13.10.2017 16:00:00 17,7 7,2 0,0
13.10.2017 15:00:00 19,2 10,2 0,0
13.10.2017 14:00:00 19,4 10,6 0,0
13.10.2017 13:00:00 18,8 14,9 0,0
13.10.2017 12:00:00 18,4 15,0 0,0
13.10.2017 11:00:00 18,1 14,5 0,0
13.10.2017 10:00:00 17,8 14,2 0,0
13.10.2017 09:00:00 17,3 14,0 0,0
13.10.2017 08:00:00 17,8 13,6 0,0
13.10.2017 07:00:00 17,7 13,3 0,0
13.10.2017 06:00:00 17,6 13,3 0,0
13.10.2017 05:00:00 16,5 13,2 0,0
13.10.2017 04:00:00 14,0 12,2 0,0
13.10.2017 03:00:00 13,8 11,6 0,0
13.10.2017 02:00:00 12,9 10,5 0,0
13.10.2017 01:00:00 12,6 9,8 0,0
13.10.2017 00:00:00 12,0 9,0 0,0
12.10.2017 23:00:00 11,5 7,9 0,0
12.10.2017 22:00:00 11,6 7,6 0,0
12.10.2017 21:00:00 10,6 8,0 0,2
12.10.2017 20:00:00 11,5 6,7 0,0
12.10.2017 19:00:00 11,2 7,5 0,0
12.10.2017 18:00:00 11,1 8,1 0,0
12.10.2017 17:00:00 11,4 7,8 0,0
12.10.2017 16:00:00 11,2 7,9 0,0
12.10.2017 15:00:00 11,4 7,5 0,0
12.10.2017 14:00:00 11,4 6,7 0,0
12.10.2017 13:00:00 12,1 5,8 0,0
12.10.2017 12:00:00 13,5 6,0 0,0
12.10.2017 11:00:00 11,6 6,1 0,0
12.10.2017 10:00:00 7,6 6,0 0,0
12.10.2017 09:00:00 3,9 3,6 0,0
12.10.2017 08:00:00 3,6 2,9 0,0
12.10.2017 07:00:00 5,1 3,5 0,0
12.10.2017 06:00:00 7,2 4,2 0,0
12.10.2017 05:00:00 6,0 3,8 0,0
12.10.2017 04:00:00 5,9 3,7 0,0
12.10.2017 03:00:00 6,2 4,5 0,0
12.10.2017 02:00:00 5,6 3,7 0,0
12.10.2017 01:00:00 6,6 3,9 0,0
12.10.2017 00:00:00 7,3 4,4 0,0
11.10.2017 23:00:00 8,3 6,3 0,2
11.10.2017 22:00:00 8,8 7,9 1,4
11.10.2017 21:00:00 8,5 8,3 0,0
11.10.2017 20:00:00 7,8 7,2 0,0
11.10.2017 19:00:00 8,3 6,6 0,0
11.10.2017 18:00:00 11,3 7,5 0,2
11.10.2017 17:00:00 13,3 7,6 0,0
11.10.2017 16:00:00 14,5 6,3 0,0
11.10.2017 15:00:00 13,9 6,9 0,0
11.10.2017 14:00:00 13,9 6,6 0,0
11.10.2017 13:00:00 13,8 6,7 0,0
11.10.2017 12:00:00 13,7 6,4 0,0
11.10.2017 11:00:00 12,7 9,8 0,0
11.10.2017 10:00:00 12,2 10,0 0,0
11.10.2017 09:00:00 13,1 9,9 0,0
11.10.2017 08:00:00 13,3 9,8 0,0
11.10.2017 07:00:00 13,0 9,6 0,0
11.10.2017 06:00:00 12,1 9,7 -
11.10.2017 05:00:00 12,0 9,4 -
11.10.2017 04:00:00 12,0 9,4 -
11.10.2017 03:00:00 12,1 9,3 -
11.10.2017 02:00:00 12,1 9,4 -

tt = Température de l'air
td = dewpoint
rr = Quantités de précipitations

stations d'obs. à proximité